Change the Weather History Date:

Monday, January 13, 2014

  Actual Average (KGSO) Record (KGSO)
Temperature  
Mean Temperature 42 °F 39 °F  
Max Temperature 57 °F 48 °F 76 °F (1911)
Min Temperature 26 °F 29 °F 6 °F (1962)
Degree Days  
Heating Degree Days 24 26  
Month to date heating degree days 338  
Since 1 July heating degree days 1752  
Cooling Degree Days 0 0  
Month to date cooling degree days 0  
Year to date cooling degree days 0  
Moisture  
Dew Point 34 °F    
Average Humidity 73    
Maximum Humidity 99    
Minimum Humidity 44    
Precipitation  
Precipitation 0.01 in 0.11 in 1.46 in (1968)
Month to date precipitation 1.30  
Year to date precipitation 1.30  
Snow  
Snow 0.00 in 0.10 in 3.10 in (1982)
Month to date snowfall 1.3  
Since 1 July snowfall 2.2  
Snow Depth -    
Sea Level Pressure  
Sea Level Pressure 30.05 in    
Wind  
Wind Speed 2 mph (SSW)    
Max Wind Speed 16 mph    
Max Gust Speed 23 mph    
Visibility 10 miles    
Events Rain    
T = Trace of Precipitation, MM = Missing Value Source: NWS Daily Summary

Daily Weather History Graph

Daily Weather History Graph

Search for Another Location

Airport or City:

Trip Planner

Search our weather history database for the weather conditions in past years. The results will help you decide how hot, cold, wet, or windy it might be!

Date:

Astronomy

Jan. 13, 2014 Rise Set
Actual Time 7:30 AM EST 5:25 PM EST
Civil Twilight 7:02 AM EST 5:53 PM EST
Nautical Twilight 6:30 AM EST 6:25 PM EST
Astronomical Twilight 5:59 AM EST 6:56 PM EST
Moon 3:39 PM EST (1/13) 5:18 AM EST (1/13)
Length of Visible Light 10h 51m
Length of Day
9h 54m
Waxing Gibbous, 95% of the Moon is Illuminated
Jan 13
Waxing Gibbous
Jan 15
Full
Jan 24
Last Quarter
Jan 30
New
Feb 6
First Quarter

Hourly Weather History & Observations

Time (EST) Temp. Windchill Dew Point Humidity Pressure Visibility Wind Dir Wind Speed Gust Speed Precip Events Conditions
12:15 AM 32.0 °F - 29.5 °F 90% 30.14 in 10.0 mi Calm Calm - N/A   Clear
12:35 AM 32.2 °F - 29.5 °F 90% 30.14 in 10.0 mi Calm Calm - N/A   Clear
12:55 AM 31.1 °F - 28.9 °F 92% 30.14 in 10.0 mi Calm Calm - N/A   Clear
1:15 AM 30.7 °F - 28.9 °F 93% 30.14 in 10.0 mi Calm Calm - N/A   Clear
1:35 AM 31.5 °F - 29.5 °F 92% 30.14 in 10.0 mi Calm Calm - N/A   Clear
1:55 AM 29.8 °F - 28.0 °F 93% 30.13 in 10.0 mi Calm Calm - N/A   Clear
2:15 AM 30.9 °F - 29.1 °F 93% 30.13 in 10.0 mi Calm Calm - N/A   Clear
2:35 AM 30.0 °F - 28.8 °F 95% 30.13 in 10.0 mi Calm Calm - N/A   Clear
2:55 AM 30.2 °F - 28.6 °F 94% 30.13 in 10.0 mi Calm Calm - N/A   Clear
3:15 AM 30.2 °F - 28.9 °F 95% 30.13 in 10.0 mi Calm Calm - N/A   Clear
3:35 AM 29.7 °F - 28.0 °F 94% 30.13 in 10.0 mi Calm Calm - N/A   Clear
3:55 AM 29.5 °F - 28.4 °F 96% 30.13 in 10.0 mi Calm Calm - N/A   Clear
4:15 AM 29.7 °F 26.1 °F 28.4 °F 95% 30.12 in 10.0 mi SSW 3.5 mph - N/A   Clear
4:35 AM 31.5 °F - 29.8 °F 94% 30.12 in 10.0 mi Calm Calm - N/A   Clear
4:55 AM 32.0 °F - 29.1 °F 89% 30.11 in 10.0 mi Calm Calm - N/A   Clear
5:15 AM 30.7 °F - 28.6 °F 92% 30.11 in 10.0 mi Calm Calm - N/A   Clear
5:35 AM 29.5 °F - 28.0 °F 94% 30.12 in 10.0 mi Calm Calm - N/A   Clear
5:55 AM 28.4 °F - 27.5 °F 96% 30.12 in 10.0 mi Calm Calm - N/A   Clear
6:15 AM 28.0 °F - 27.1 °F 96% 30.12 in 10.0 mi Calm Calm - N/A   Clear
6:35 AM 27.5 °F - 26.8 °F 97% 30.13 in 10.0 mi Calm Calm - N/A   Clear
6:55 AM 28.0 °F - 27.3 °F 97% 30.12 in 7.0 mi Calm Calm - N/A   Clear
7:15 AM 27.3 °F - 26.6 °F 97% 30.11 in 7.0 mi Calm Calm - N/A   Clear
7:35 AM 26.6 °F - 26.1 °F 98% 30.12 in 10.0 mi Calm Calm - N/A   Clear
7:55 AM 26.6 °F - 26.1 °F 98% 30.12 in 10.0 mi Calm Calm - N/A   Clear
8:15 AM 27.1 °F - 26.6 °F 98% 30.13 in 10.0 mi Calm Calm - N/A   Clear
8:35 AM 29.8 °F - 29.3 °F 98% 30.13 in 10.0 mi Calm Calm - N/A   Clear
8:55 AM 32.0 °F - 31.8 °F 99% 30.12 in 10.0 mi Calm Calm - N/A   Clear
9:15 AM 35.8 °F - 34.3 °F 94% 30.12 in 10.0 mi Calm Calm - N/A   Clear
9:35 AM 40.5 °F - 36.0 °F 84% 30.12 in 10.0 mi Calm Calm - N/A   Clear
9:55 AM 43.7 °F 42.1 °F 36.3 °F 75% 30.14 in 10.0 mi WSW 3.5 mph - N/A   Clear
10:15 AM 45.0 °F 43.5 °F 36.5 °F 72% 30.12 in 10.0 mi SSW 3.5 mph - N/A   Clear
10:35 AM 46.8 °F - 36.9 °F 68% 30.11 in 10.0 mi SSW 3.5 mph - N/A   Clear
10:55 AM 49.3 °F - 37.4 °F 64% 30.09 in 10.0 mi SW 3.5 mph - N/A   Clear
11:15 AM 51.6 °F - 37.2 °F 58% 30.09 in 10.0 mi WSW 6.9 mph - N/A   Clear
11:35 AM 53.2 °F - 36.9 °F 54% 30.08 in 10.0 mi SW 10.4 mph - N/A   Clear
11:55 AM 53.8 °F - 36.7 °F 52% 30.07 in 10.0 mi SW 9.2 mph 16.1 mph N/A   Clear
12:15 PM 54.1 °F - 37.4 °F 53% 30.05 in 10.0 mi SW 9.2 mph 16.1 mph N/A   Clear
12:35 PM 56.5 °F - 36.9 °F 48% 30.03 in 10.0 mi WSW 8.1 mph - N/A   Clear
12:55 PM 56.7 °F - 36.1 °F 46% 30.03 in 10.0 mi SSW 11.5 mph 19.6 mph N/A   Clear
1:15 PM 56.5 °F - 36.1 °F 47% 30.03 in 10.0 mi SW 11.5 mph 18.4 mph N/A   Clear
1:35 PM 57.6 °F - 36.7 °F 46% 30.03 in 10.0 mi SSW 16.1 mph 23.0 mph N/A   Clear
1:55 PM 57.2 °F - 36.5 °F 46% 30.01 in 10.0 mi SSW 13.8 mph 18.4 mph N/A   Clear
2:15 PM 57.4 °F - 36.0 °F 45% 30.00 in 10.0 mi SSW 12.7 mph 18.4 mph N/A   Clear
2:35 PM 57.0 °F - 35.6 °F 45% 30.01 in 10.0 mi SSW 11.5 mph 21.9 mph N/A   Clear
2:55 PM 56.8 °F - 35.8 °F 45% 30.00 in 10.0 mi SSW 10.4 mph 16.1 mph N/A   Clear
3:15 PM 57.2 °F - 36.1 °F 45% 30.00 in 10.0 mi SSW 5.8 mph - N/A   Clear
3:35 PM 57.4 °F - 35.8 °F 44% 30.01 in 10.0 mi SW 9.2 mph - N/A   Clear
3:55 PM 57.2 °F - 35.2 °F 44% 29.99 in 10.0 mi SSW 10.4 mph - N/A   Clear
4:15 PM 56.7 °F - 35.1 °F 44% 29.98 in 10.0 mi SSW 4.6 mph - N/A   Clear
4:35 PM 56.3 °F - 35.4 °F 46% 29.98 in 10.0 mi SSW 3.5 mph - N/A   Clear
4:55 PM 55.4 °F - 36.0 °F 48% 29.99 in 10.0 mi South 4.6 mph - N/A   Clear
5:15 PM 55.4 °F - 35.4 °F 47% 29.99 in 10.0 mi SSW 5.8 mph 16.1 mph N/A   Clear
5:35 PM 54.5 °F - 35.2 °F 48% 29.98 in 10.0 mi SSW 4.6 mph - N/A   Clear
5:55 PM 53.4 °F - 35.6 °F 51% 29.99 in 10.0 mi South 6.9 mph - N/A   Clear
6:15 PM 53.4 °F - 36.0 °F 52% 29.98 in 10.0 mi South 5.8 mph - N/A   Clear
6:35 PM 52.3 °F - 36.3 °F 54% 29.98 in 10.0 mi SSW 4.6 mph - N/A   Clear
6:55 PM 52.0 °F - 36.5 °F 56% 29.99 in 10.0 mi SSW 6.9 mph - N/A   Clear
7:15 PM 51.8 °F - 36.5 °F 56% 29.99 in 10.0 mi South 4.6 mph - N/A   Clear
7:35 PM 51.3 °F - 36.5 °F 57% 29.99 in 10.0 mi South 3.5 mph - N/A   Clear
7:55 PM 50.9 °F - 36.5 °F 58% 29.98 in 10.0 mi South 4.6 mph - N/A   Clear
8:15 PM 50.4 °F - 36.5 °F 59% 29.98 in 10.0 mi SSW 3.5 mph - N/A   Clear
8:35 PM 49.6 °F - 36.5 °F 61% 29.97 in 10.0 mi Calm Calm - N/A   Clear
9:00 PM 49.5 °F - 37.0 °F 62% 29.97 in 10.0 mi Calm Calm - N/A   Clear
9:15 PM 49.5 °F - 37.0 °F 62% 29.97 in 10.0 mi SSW 3.5 mph - N/A   Mostly Cloudy
9:35 PM 49.3 °F - 37.4 °F 64% 29.96 in 10.0 mi Calm Calm - N/A   Overcast
9:55 PM 46.9 °F - 40.3 °F 78% 29.97 in 10.0 mi SSW 3.5 mph - N/A Rain Light Rain
10:15 PM 45.1 °F - 41.5 °F 87% 29.97 in 10.0 mi Calm Calm - N/A Rain Rain
10:35 PM 45.3 °F 44.0 °F 41.9 °F 88% 29.97 in 10.0 mi South 3.5 mph - N/A Rain Light Rain
10:55 PM 45.1 °F - 42.1 °F 89% 29.96 in 10.0 mi Calm Calm - N/A Rain Light Rain
11:15 PM 45.0 °F - 42.1 °F 90% 29.95 in 10.0 mi Calm Calm - 0.01 in Rain Rain
11:35 PM 45.0 °F 42.6 °F 42.4 °F 91% 29.95 in 10.0 mi SW 4.6 mph - 0.01 in Rain Light Rain
11:55 PM 45.1 °F 43.7 °F 42.8 °F 91% 29.94 in 10.0 mi SSW 3.5 mph - 0.01 in Rain Rain